Home > Weather > Bodø > Past weeks

Flag for Norway Past Weather in Bodø, Norway — Yesterday and Last 2 Weeks

Now
57 °F

Sunny.


Feels Like: 56 °F
Forecast: 53 / 60 °F
Wind: 6 mph from North

Location: Bodo Vi

Current Time: May 31, 2016 at 9:48:41 AM

Latest Report: May 31, 2016 at 9:20 AM


Visibility: 10 mi

Pressure: 30.24 "Hg

Humidity: 77%

Dew Point: 50 °F

Location of BodøLocation

Past Weather in Bodø — Graph

°F

Bodø Temperature Yesterday

Maximum temperature yesterday: 63 °F (at 10:50 AM)
Minimum temperature yesterday: 52 °F (at 1:50 AM)
Average temperature yesterday: 57 °F

High & Low Weather Summary for the Past Weeks

 TemperatureHumidityPressure
High66 °F (May 28, 11:50 AM)100% (May 17, 1:50 AM)30.36 "Hg (May 17, 1:50 AM)
Low32 °F (May 18, 5:50 AM)34% (May 22, 5:50 PM)29.50 "Hg (May 17, 12:50 AM)
Average49 °F74%30.00 "Hg
* Reported May 16 8:20 AM — May 31 8:50 AM, Bodø, Weather by CustomWeather, © 2016

Note: Actual official high and low records may vary slightly from our data, if they occured in-between our weather recording intervals... More about our weather records

Advertising

Bodø Weather History for the Previous 24 Hours

Scroll right to see more
 ConditionsComfort  
Time TempWeatherWind HumidityBarometerVisibility
8:50 AM
Tue, May 31
57 °FPassing clouds.3 mph82%30.27 "HgN/A
7:50 AM55 °FSunny.3 mph82%30.24 "Hg10 mi
7:20 AM55 °FSunny.3 mph82%30.24 "Hg10 mi
6:50 AM55 °FPassing clouds.3 mph82%30.24 "HgN/A
6:20 AM55 °FSunny.7 mph77%30.27 "Hg10 mi
5:50 AM55 °FSunny.9 mph77%30.24 "Hg10 mi
5:20 AM54 °FSunny.6 mph82%30.27 "Hg10 mi
4:50 AM52 °FPassing clouds.3 mph88%30.27 "HgN/A
3:50 AM52 °FSunny.6 mph88%30.27 "Hg10 mi
2:50 AM50 °FSunny.3 mph94%30.27 "Hg10 mi
1:50 AM50 °FPassing clouds.5 mph100%30.27 "HgN/A
12:50 AM52 °FSunny.2 mph94%30.27 "Hg10 mi
11:50 PM
Mon, May 30
54 °FSunny.7 mph88%30.27 "Hg10 mi
11:20 PM54 °FPassing clouds.5 mph88%30.27 "HgN/A
10:50 PM52 °FPassing clouds.6 mph94%30.27 "HgN/A
10:20 PM54 °FSunny.6 mph88%30.27 "Hg10 mi
9:50 PM57 °FPassing clouds.2 mph72%30.24 "HgN/A
9:20 PM57 °FPassing clouds.2 mph77%30.24 "HgN/A
8:50 PM57 °FSunny.8 mph72%30.24 "Hg10 mi
8:20 PM57 °FPassing clouds.6 mph77%30.24 "HgN/A
7:50 PM55 °FPassing clouds.9 mph82%30.24 "HgN/A
7:20 PM57 °FPassing clouds.9 mph77%30.24 "HgN/A
6:50 PM57 °FScattered clouds.7 mph77%30.24 "HgN/A
6:20 PM59 °FScattered clouds.6 mph72%30.24 "HgN/A
5:50 PM59 °FScattered clouds.7 mph72%30.24 "HgN/A
5:20 PM59 °FScattered clouds.7 mph77%30.24 "HgN/A
4:50 PM59 °FScattered clouds.8 mph77%30.24 "HgN/A
4:20 PM59 °FScattered clouds.8 mph77%30.24 "HgN/A
3:50 PM59 °FScattered clouds.10 mph77%30.24 "HgN/A
3:20 PM59 °FScattered clouds.9 mph72%30.24 "HgN/A
2:50 PM61 °FScattered clouds.9 mph72%30.24 "HgN/A
2:20 PM61 °FScattered clouds.7 mph72%30.24 "HgN/A
1:50 PM63 °FScattered clouds.7 mph68%30.24 "HgN/A
12:50 PM61 °FScattered clouds.7 mph72%30.24 "HgN/A
12:20 PM61 °FScattered clouds.6 mph68%30.24 "HgN/A
11:50 AM63 °FScattered clouds.7 mph59%30.21 "HgN/A
10:50 AM63 °FScattered clouds.3 mph59%30.21 "HgN/A
10:20 AM61 °FScattered clouds.2 mph68%30.21 "HgN/A
9:50 AM61 °FScattered clouds.6 mph63%30.21 "HgN/A
9:20 AM61 °FScattered clouds.6 mph68%30.21 "HgN/A
Weather by CustomWeather, © 2016

See weather overviewHow to use our weather pages